Home

Run scraper

District Dashboard

The bold notices are new and require basic data entry.

ID Number Applicant Post Date Expiration Status
1571495 Public Notice No. 18-30 2018-07-11 2018-08-08
1567865 Public Notice No. 18-28 2018-07-05 2018-08-05
1557932 The US Army Corps of Engineers (Corps) 2018-06-22 2018-07-27
1550940 Public Notice 18-23 2018-06-14 2018-07-15
1539990 The U. S. Army Corps of Engineers 2018-06-04 2018-07-06
1536881 DRAFT Environmental Assessment for Proposed Update of the Center Hill Lake Master Plan 2018-05-31 2018-07-06
1531921 Public Notice 18-22 2018-05-24 2018-06-23
1526786 Public Notice No. 18-18 2018-05-21 2018-06-21
1522770 Public Notice 18-21 2018-05-15 2018-06-15
1522760 Public Notice 18-20 2018-05-15 2018-06-15
1522745 Public Notice 18-19 2018-05-15 2018-06-15
1518654 J. Percy Priest Reservoir 2018-05-14 2018-06-18
1504135 (missing) 2018-04-26 2018-05-31
1500164 The U.S. Army Corps of Engineers Nashville District is hosting a public scoping meeting 6-8 p.m. Thursday 2018-04-20 2018-05-31
1495227 Public Notice No. 18-16 2018-04-17 2018-05-17
1489061 Public Notice No. 18-15 2018-04-10 2018-05-10
1490778 Scoping Letter: Multi-Agency Research Project on Deterrent System for Asian Carp at Barkley Lock and Dam 2018-04-09 2018-05-11
1483717 Public Notice No. 18-14 2018-04-03 2018-05-04
1480884 Programmatic General Permit (18-PGP-01) for Minor Structures 2018-03-30 2018-04-30
1475805 Public Notice No. 18-12 2018-03-26 2018-04-25
1474993 Public Notice No. 18-10 2018-03-23 2018-04-22
1467799 Public Notice No. 18-09 2018-03-15 2018-04-13
1467773 Proposed Construction of Two Borrow Sites 2018-03-15 2018-04-16
1467014 Public Notice No. 18-11 2018-03-15 2018-04-13
1456514 Public Notice No. 18-08 2018-03-02 2018-04-01
1455085 Public Notice No. 18-04 2018-03-01 2018-03-30
1439305 (missing) 2018-02-12 2018-03-14
1434170 Public Notice No. 18-02 2018-02-06 2018-03-06
1434132 Public Notice No. 18-03 2018-02-06 2018-03-06
1418284 Special Public Notice 2018-01-18
1415361 Public Notice 17-28 2018-01-12 2018-02-12
1405844 Proposed Discharge of Fill Material into Waters of the U.S. Associated with Construction of a Barge Dock and Mooring Cells in Decatur 2017-12-29 2018-01-28
1393275 Public Notice No. 17-31 2017-12-11 2018-01-10
1389500 This notice announces a prospectus has been submitted for the development of the Paint Rock Creek Stream and Wetland Mitigation Bank pursuant to 33 CFR 332 2017-12-06 2018-01-06
1385947 Swannanoa River Watershed 2017-12-01 2018-01-31
1383931 Public Notice No. 17-23A 2017-11-30 2017-12-14
1371633 Public Notice No. 17-27 2017-11-14 2017-12-14
1353153 Public Notice No. 17-21 2017-10-25 2017-11-25
1352069 Public Notice No. 17-25 2017-10-24 2017-11-23
1351003 Public Notice No. 17-24 2017-10-23 2017-11-22
1323943 Public Notice 17-19 2017-09-25 2017-10-22
1317685 Public Notice No. 17-18 2017-09-20 2017-10-18
1316273 DRAFT Environmental Assessment for a Proposed Update of the Cheatham Lake Master Plan 2017-09-19 2017-10-25
1314422 Public Notice No. 17-23 2017-09-18 2017-10-14
1313194 Public Notice No. 17-22 2017-09-15 2017-10-13
1311404 Public Notice No. 17-13 2017-09-14 2017-10-13
1298440 Public Notice 17-20 2017-09-01 2017-10-02
1293765 Public Notice No. 17-17 2017-08-29 2017-09-27
1299122 Scoping Letter seeking public and agency comments concerning environmental issues for the Harpeth River Watershed Feasibility Project being conducted by the U.S. Army Corps of Engineers Nashville District in partnership with the city of Franklin 2017-08-28 2017-10-07
1278693 The Environmental Protection Agency is conducting sediment sampling in the vicinity of Tennessee River Mile 18 from Aug. 14-25 2017-08-14 2017-08-28
1278681 (missing) 2017-08-10 2017-09-18
1274229 The U. S. Army Corps of Engineers 2017-08-10 2017-09-01
1231012 (missing) 2017-06-27
1229666 Public Notice No. 17-15 2017-06-26 2017-07-21
1226973 Public Notice No.17-16 2017-06-23 2017-07-23
1212070 Public Notice No. 17-14 2017-06-13 2017-07-12
1188079 Public Notice No. 17-12 2017-05-19 2017-06-19
934927 Effective Oct. 2 2016-09-09

Data are available as CSV download in the following schemas